iso_date,epoch_date,Year,Hour,Min,DOY,POS_DOY,Lat,Lon,BP,Ts,Ta,has_bp,has_ts,has_ta,BuoyID,Buoy_Type,Buoy_Owner,Logistics,Hemisphere
2013-02-11T16:59:31Z,1360601971,2013,17,0,42.708,42.708,-70.6752,-8.2744,978.1,0.5,0.5,yes,yes,yes,300234011691900,Snow_Buoy,AWI-USIABP,unknown,South
2013-02-11T18:00:00Z,1360605600,2013,18,0,42.75,42.75,-70.689,-8.2712,978.2,-0.4,0.2,yes,yes,yes,300234011691900,Snow_Buoy,AWI-USIABP,unknown,South
2013-02-11T19:00:28Z,1360609229,2013,19,1,42.792,42.792,-70.689,-8.2712,978.2,-0.9,-0.9,yes,yes,yes,300234011691900,Snow_Buoy,AWI-USIABP,unknown,South
2013-02-11T19:59:31Z,1360612771,2013,20,0,42.833,42.833,-70.689,-8.2712,978.4,-1.3,-1.0,yes,yes,yes,300234011691900,Snow_Buoy,AWI-USIABP,unknown,South
2013-02-11T21:00:00Z,1360616400,2013,21,0,42.875,42.875,-70.689,-8.271,978.3,-1.6,-4.5,yes,yes,yes,300234011691900,Snow_Buoy,AWI-USIABP,unknown,South
2013-02-11T22:00:28Z,1360620029,2013,22,0,42.917,42.917,-70.689,-8.271,978.3,-2.0,-6.8,yes,yes,yes,300234011691900,Snow_Buoy,AWI-USIABP,unknown,South
2013-02-11T23:24:00Z,1360625040,2013,23,24,42.975,42.975,-70.689,-8.2712,978.4,-2.7,-8.7,yes,yes,yes,300234011691900,Snow_Buoy,AWI-USIABP,unknown,South
2013-02-12T00:01:26Z,1360627286,2013,0,1,43.001,43.001,-70.689,-8.271,978.4,-3.0,-9.4,yes,yes,yes,300234011691900,Snow_Buoy,AWI-USIABP,unknown,South
2013-02-12T01:00:28Z,1360630829,2013,1,0,43.042,43.042,-70.689,-8.271,978.2,-3.5,-9.8,yes,yes,yes,300234011691900,Snow_Buoy,AWI-USIABP,unknown,South
2013-02-12T01:59:31Z,1360634371,2013,2,0,43.083,43.083,-70.689,-8.271,977.9,-3.9,-8.3,yes,yes,yes,300234011691900,Snow_Buoy,AWI-USIABP,unknown,South
2013-02-12T03:00:00Z,1360638000,2013,3,0,43.125,43.125,-70.689,-8.2712,977.6,-4.3,-10.8,yes,yes,yes,300234011691900,Snow_Buoy,AWI-USIABP,unknown,South
2013-02-12T04:00:28Z,1360641629,2013,4,0,43.167,43.167,-70.689,-8.2712,977.5,-4.6,-12.4,yes,yes,yes,300234011691900,Snow_Buoy,AWI-USIABP,unknown,South
2013-02-12T04:59:31Z,1360645171,2013,5,0,43.208,43.208,-70.689,-8.2712,977.4,-5.0,-11.9,yes,yes,yes,300234011691900,Snow_Buoy,AWI-USIABP,unknown,South
2013-02-12T06:00:00Z,1360648800,2013,6,0,43.25,43.25,-70.689,-8.2712,977.3,-5.3,-12.6,yes,yes,yes,300234011691900,Snow_Buoy,AWI-USIABP,unknown,South
2013-02-12T07:00:28Z,1360652429,2013,7,0,43.292,43.292,-70.689,-8.2712,977.3,-5.5,-12.1,yes,yes,yes,300234011691900,Snow_Buoy,AWI-USIABP,unknown,South
2013-02-12T08:13:55Z,1360656835,2013,8,14,43.343,43.343,-70.689,-8.2712,977.3,-5.6,-10.1,yes,yes,yes,300234011691900,Snow_Buoy,AWI-USIABP,unknown,South
2013-02-12T09:00:00Z,1360659600,2013,9,0,43.375,43.375,-70.689,-8.2712,977.5,-5.6,-10.3,yes,yes,yes,300234011691900,Snow_Buoy,AWI-USIABP,unknown,South
2013-02-12T10:16:19Z,1360664179,2013,10,16,43.428,43.428,-70.689,-8.2712,977.7,-5.5,-7.3,yes,yes,yes,300234011691900,Snow_Buoy,AWI-USIABP,unknown,South
2013-02-12T11:00:57Z,1360666858,2013,11,1,43.459,43.459,-70.689,-8.2712,977.8,-5.4,-5.0,yes,yes,yes,300234011691900,Snow_Buoy,AWI-USIABP,unknown,South
2013-02-12T12:01:26Z,1360670486,2013,12,1,43.501,43.501,-70.689,-8.271,977.8,-5.2,-3.9,yes,yes,yes,300234011691900,Snow_Buoy,AWI-USIABP,unknown,South
2013-02-12T13:00:28Z,1360674029,2013,13,0,43.542,43.542,-70.689,-8.271,977.9,-4.9,-4.3,yes,yes,yes,300234011691900,Snow_Buoy,AWI-USIABP,unknown,South
2013-02-12T13:59:31Z,1360677571,2013,14,0,43.583,43.583,-70.689,-8.271,978.1,-4.7,-4.5,yes,yes,yes,300234011691900,Snow_Buoy,AWI-USIABP,unknown,South
2013-02-12T15:00:00Z,1360681200,2013,15,0,43.625,43.625,-70.689,-8.2712,978.4,-4.5,-4.6,yes,yes,yes,300234011691900,Snow_Buoy,AWI-USIABP,unknown,South
2013-02-12T16:00:28Z,1360684829,2013,16,0,43.667,43.667,-70.689,-8.2712,978.8,-4.4,-5.1,yes,yes,yes,300234011691900,Snow_Buoy,AWI-USIABP,unknown,South
2013-02-12T16:59:31Z,1360688371,2013,17,0,43.708,43.708,-70.689,-8.2712,979.3,-4.3,-5.3,yes,yes,yes,300234011691900,Snow_Buoy,AWI-USIABP,unknown,South
2013-02-12T18:00:00Z,1360692000,2013,18,0,43.75,43.75,-70.689,-8.271,979.8,-4.3,-5.6,yes,yes,yes,300234011691900,Snow_Buoy,AWI-USIABP,unknown,South
2013-02-12T19:00:28Z,1360695629,2013,19,0,43.792,43.792,-70.689,-8.271,980.6,-4.4,-6.2,yes,yes,yes,300234011691900,Snow_Buoy,AWI-USIABP,unknown,South
2013-02-12T19:59:31Z,1360699171,2013,20,0,43.833,43.833,-70.689,-8.271,981.5,-4.5,-7.2,yes,yes,yes,300234011691900,Snow_Buoy,AWI-USIABP,unknown,South
2013-02-12T21:00:00Z,1360702800,2013,21,0,43.875,43.875,-70.689,-8.271,982.5,-4.7,-8.0,yes,yes,yes,300234011691900,Snow_Buoy,AWI-USIABP,unknown,South
2013-02-12T22:00:28Z,1360706429,2013,22,0,43.917,43.917,-70.689,-8.271,983.1,-4.9,-8.7,yes,yes,yes,300234011691900,Snow_Buoy,AWI-USIABP,unknown,South
2013-02-12T22:59:31Z,1360709971,2013,23,0,43.958,43.958,-70.689,-8.271,983.5,-5.2,-10.1,yes,yes,yes,300234011691900,Snow_Buoy,AWI-USIABP,unknown,South
2013-02-13T00:00:00Z,1360713600,2013,0,0,44.0,44.0,-70.689,-8.271,983.9,-5.5,-11.3,yes,yes,yes,300234011691900,Snow_Buoy,AWI-USIABP,unknown,South
2013-02-13T01:00:28Z,1360717229,2013,1,0,44.042,44.042,-70.689,-8.271,984.3,-5.9,-12.6,yes,yes,yes,300234011691900,Snow_Buoy,AWI-USIABP,unknown,South
2013-02-13T01:59:31Z,1360720771,2013,2,0,44.083,44.083,-70.689,-8.271,984.6,-6.2,-14.0,yes,yes,yes,300234011691900,Snow_Buoy,AWI-USIABP,unknown,South
2013-02-13T03:00:00Z,1360724400,2013,3,0,44.125,44.125,-70.689,-8.2712,984.8,-6.6,-12.3,yes,yes,yes,300234011691900,Snow_Buoy,AWI-USIABP,unknown,South
2013-02-13T04:00:28Z,1360728029,2013,4,0,44.167,44.167,-70.689,-8.2712,985.3,-6.9,-13.1,yes,yes,yes,300234011691900,Snow_Buoy,AWI-USIABP,unknown,South
2013-02-13T05:21:07Z,1360732867,2013,5,21,44.223,44.223,-70.689,-8.271,986.1,-7.2,-13.7,yes,yes,yes,300234011691900,Snow_Buoy,AWI-USIABP,unknown,South
2013-02-13T06:00:00Z,1360735200,2013,6,0,44.25,44.25,-70.689,-8.2712,986.3,-7.3,-13.9,yes,yes,yes,300234011691900,Snow_Buoy,AWI-USIABP,unknown,South
2013-02-13T07:00:28Z,1360738829,2013,7,0,44.292,44.292,-70.689,-8.2712,987.1,-7.4,-13.6,yes,yes,yes,300234011691900,Snow_Buoy,AWI-USIABP,unknown,South
2013-02-13T07:59:31Z,1360742371,2013,8,0,44.333,44.333,-70.689,-8.2712,987.6,-7.4,-12.6,yes,yes,yes,300234011691900,Snow_Buoy,AWI-USIABP,unknown,South
2013-02-13T09:00:00Z,1360746000,2013,9,0,44.375,44.375,-70.689,-8.2708,988.0,-7.4,-11.4,yes,yes,yes,300234011691900,Snow_Buoy,AWI-USIABP,unknown,South
2013-02-13T10:00:28Z,1360749629,2013,10,0,44.417,44.417,-70.689,-8.2708,988.6,-7.3,-10.7,yes,yes,yes,300234011691900,Snow_Buoy,AWI-USIABP,unknown,South
2013-02-13T10:59:31Z,1360753171,2013,11,0,44.458,44.458,-70.689,-8.2708,988.7,-7.1,-8.6,yes,yes,yes,300234011691900,Snow_Buoy,AWI-USIABP,unknown,South
2013-02-13T12:11:31Z,1360757491,2013,12,12,44.508,44.508,-70.689,-8.2712,988.9,-6.9,-6.1,yes,yes,yes,300234011691900,Snow_Buoy,AWI-USIABP,unknown,South
2013-02-13T13:00:28Z,1360760429,2013,13,0,44.542,44.542,-70.689,-8.2712,988.9,-6.6,-4.9,yes,yes,yes,300234011691900,Snow_Buoy,AWI-USIABP,unknown,South
2013-02-13T13:59:31Z,1360763971,2013,14,0,44.583,44.583,-70.689,-8.2712,988.9,-6.3,-5.5,yes,yes,yes,300234011691900,Snow_Buoy,AWI-USIABP,unknown,South
2013-02-13T15:00:00Z,1360767600,2013,15,0,44.625,44.625,-70.689,-8.2712,988.8,-6.1,-5.9,yes,yes,yes,300234011691900,Snow_Buoy,AWI-USIABP,unknown,South
2013-02-13T16:00:28Z,1360771229,2013,16,0,44.667,44.667,-70.689,-8.2712,988.6,-5.9,-5.4,yes,yes,yes,300234011691900,Snow_Buoy,AWI-USIABP,unknown,South
2013-02-13T16:59:31Z,1360774771,2013,17,0,44.708,44.708,-70.689,-8.2712,988.3,-5.7,-5.4,yes,yes,yes,300234011691900,Snow_Buoy,AWI-USIABP,unknown,South
2013-02-13T18:00:00Z,1360778400,2013,18,0,44.75,44.75,-70.689,-8.2712,988.3,-5.6,-5.9,yes,yes,yes,300234011691900,Snow_Buoy,AWI-USIABP,unknown,South
2013-02-13T19:00:28Z,1360782029,2013,19,0,44.792,44.792,-70.689,-8.2712,988.2,-5.6,-6.7,yes,yes,yes,300234011691900,Snow_Buoy,AWI-USIABP,unknown,South
2013-02-13T19:59:31Z,1360785571,2013,20,0,44.833,44.833,-70.689,-8.2712,988.2,-5.6,-8.4,yes,yes,yes,300234011691900,Snow_Buoy,AWI-USIABP,unknown,South
2013-02-13T21:00:00Z,1360789200,2013,21,0,44.875,44.875,-70.689,-8.2712,988.2,-5.8,-10.0,yes,yes,yes,300234011691900,Snow_Buoy,AWI-USIABP,unknown,South
2013-02-13T22:00:28Z,1360792829,2013,22,0,44.917,44.917,-70.689,-8.2712,988.1,-6.1,-12.0,yes,yes,yes,300234011691900,Snow_Buoy,AWI-USIABP,unknown,South
2013-02-13T22:59:31Z,1360796371,2013,23,0,44.958,44.958,-70.689,-8.2712,987.8,-6.5,-11.2,yes,yes,yes,300234011691900,Snow_Buoy,AWI-USIABP,unknown,South
2013-02-14T00:00:00Z,1360800000,2013,0,0,45.0,45.0,-70.689,-8.271,987.7,-6.8,-12.4,yes,yes,yes,300234011691900,Snow_Buoy,AWI-USIABP,unknown,South
2013-02-14T01:00:28Z,1360803629,2013,1,0,45.042,45.042,-70.689,-8.271,987.4,-7.2,-14.4,yes,yes,yes,300234011691900,Snow_Buoy,AWI-USIABP,unknown,South
2013-02-14T01:59:31Z,1360807171,2013,2,0,45.083,45.083,-70.689,-8.271,987.3,-7.5,-14.7,yes,yes,yes,300234011691900,Snow_Buoy,AWI-USIABP,unknown,South
2013-02-14T03:00:00Z,1360810800,2013,3,0,45.125,45.125,-70.689,-8.2712,986.8,-7.8,-13.2,yes,yes,yes,300234011691900,Snow_Buoy,AWI-USIABP,unknown,South
2013-02-14T04:00:28Z,1360814429,2013,4,0,45.167,45.167,-70.689,-8.2712,986.4,-7.9,-11.3,yes,yes,yes,300234011691900,Snow_Buoy,AWI-USIABP,unknown,South
2013-02-14T04:59:31Z,1360817971,2013,5,0,45.208,45.208,-70.689,-8.2712,986.1,-7.8,-10.2,yes,yes,yes,300234011691900,Snow_Buoy,AWI-USIABP,unknown,South
2013-02-14T06:00:00Z,1360821600,2013,6,0,45.25,45.25,-70.689,-8.2712,985.5,-7.8,-9.0,yes,yes,yes,300234011691900,Snow_Buoy,AWI-USIABP,unknown,South
2013-02-14T07:00:28Z,1360825229,2013,7,0,45.292,45.292,-70.689,-8.2712,985.2,-7.7,-8.0,yes,yes,yes,300234011691900,Snow_Buoy,AWI-USIABP,unknown,South
2013-02-14T07:59:31Z,1360828771,2013,8,0,45.333,45.333,-70.689,-8.2712,984.7,-7.5,-6.6,yes,yes,yes,300234011691900,Snow_Buoy,AWI-USIABP,unknown,South
2013-02-14T09:17:16Z,1360833437,2013,9,17,45.387,45.387,-70.689,-8.271,984.2,-7.2,-5.3,yes,yes,yes,300234011691900,Snow_Buoy,AWI-USIABP,unknown,South
2013-02-14T10:00:28Z,1360836029,2013,10,0,45.417,45.417,-70.689,-8.271,984.0,-7.0,-4.8,yes,yes,yes,300234011691900,Snow_Buoy,AWI-USIABP,unknown,South
2013-02-14T10:59:31Z,1360839571,2013,11,0,45.458,45.458,-70.689,-8.271,983.5,-6.8,-4.6,yes,yes,yes,300234011691900,Snow_Buoy,AWI-USIABP,unknown,South
2013-02-14T12:00:00Z,1360843200,2013,12,0,45.5,45.5,-70.689,-8.2712,982.9,-6.5,-3.7,yes,yes,yes,300234011691900,Snow_Buoy,AWI-USIABP,unknown,South
2013-02-14T13:00:28Z,1360846829,2013,13,0,45.542,45.542,-70.689,-8.2712,982.5,-6.2,-3.0,yes,yes,yes,300234011691900,Snow_Buoy,AWI-USIABP,unknown,South
2013-02-14T13:59:31Z,1360850371,2013,14,0,45.583,45.583,-70.689,-8.2712,981.6,-6.0,-2.6,yes,yes,yes,300234011691900,Snow_Buoy,AWI-USIABP,unknown,South
2013-02-14T15:00:00Z,1360854000,2013,15,0,45.625,45.625,-70.689,-8.2712,980.8,-5.7,-2.3,yes,yes,yes,300234011691900,Snow_Buoy,AWI-USIABP,unknown,South
2013-02-14T16:00:28Z,1360857629,2013,16,0,45.667,45.667,-70.689,-8.2712,980.2,-5.5,-2.2,yes,yes,yes,300234011691900,Snow_Buoy,AWI-USIABP,unknown,South
2013-02-14T16:59:31Z,1360861171,2013,17,0,45.708,45.708,-70.689,-8.2712,979.7,-5.4,-2.5,yes,yes,yes,300234011691900,Snow_Buoy,AWI-USIABP,unknown,South
2013-02-14T18:00:00Z,1360864800,2013,18,0,45.75,45.75,-70.689,-8.2712,979.3,-5.3,-2.6,yes,yes,yes,300234011691900,Snow_Buoy,AWI-USIABP,unknown,South
2013-02-14T19:00:28Z,1360868429,2013,19,0,45.792,45.792,-70.689,-8.2712,978.6,-5.2,-2.8,yes,yes,yes,300234011691900,Snow_Buoy,AWI-USIABP,unknown,South
2013-02-14T19:59:31Z,1360871971,2013,20,0,45.833,45.833,-70.689,-8.2712,978.2,-5.2,-2.6,yes,yes,yes,300234011691900,Snow_Buoy,AWI-USIABP,unknown,South
2013-02-14T21:00:00Z,1360875600,2013,21,0,45.875,45.875,-70.689,-8.271,977.9,-5.2,-2.8,yes,yes,yes,300234011691900,Snow_Buoy,AWI-USIABP,unknown,South
2013-02-14T22:00:28Z,1360879229,2013,22,0,45.917,45.917,-70.689,-8.271,977.7,-5.2,-3.0,yes,yes,yes,300234011691900,Snow_Buoy,AWI-USIABP,unknown,South
2013-02-14T22:59:31Z,1360882771,2013,23,0,45.958,45.958,-70.689,-8.271,977.6,-5.2,-3.2,yes,yes,yes,300234011691900,Snow_Buoy,AWI-USIABP,unknown,South
2013-02-15T00:00:00Z,1360886400,2013,0,0,46.0,46.0,-70.689,-8.271,977.3,-5.2,-3.3,yes,yes,yes,300234011691900,Snow_Buoy,AWI-USIABP,unknown,South
2013-02-15T01:00:28Z,1360890029,2013,1,0,46.042,46.042,-70.689,-8.271,977.1,-5.2,-3.3,yes,yes,yes,300234011691900,Snow_Buoy,AWI-USIABP,unknown,South
2013-02-15T01:59:31Z,1360893571,2013,2,0,46.083,46.083,-70.689,-8.271,977.0,-5.2,-3.2,yes,yes,yes,300234011691900,Snow_Buoy,AWI-USIABP,unknown,South
2013-02-15T03:00:00Z,1360897200,2013,3,0,46.125,46.125,-70.689,-8.2712,976.6,-5.2,-3.0,yes,yes,yes,300234011691900,Snow_Buoy,AWI-USIABP,unknown,South
2013-02-15T04:00:28Z,1360900829,2013,4,0,46.167,46.167,-70.689,-8.2712,976.1,-5.2,-3.1,yes,yes,yes,300234011691900,Snow_Buoy,AWI-USIABP,unknown,South
2013-02-15T04:59:31Z,1360904371,2013,5,0,46.208,46.208,-70.689,-8.2712,975.8,-5.2,-3.2,yes,yes,yes,300234011691900,Snow_Buoy,AWI-USIABP,unknown,South
2013-02-15T06:00:00Z,1360908000,2013,6,0,46.25,46.25,-70.689,-8.2712,975.9,-5.1,-3.3,yes,yes,yes,300234011691900,Snow_Buoy,AWI-USIABP,unknown,South
2013-02-15T07:00:28Z,1360911629,2013,7,0,46.292,46.292,-70.689,-8.2712,976.0,-5.1,-3.4,yes,yes,yes,300234011691900,Snow_Buoy,AWI-USIABP,unknown,South
2013-02-15T07:59:31Z,1360915171,2013,8,0,46.333,46.333,-70.689,-8.2712,975.8,-5.1,-3.7,yes,yes,yes,300234011691900,Snow_Buoy,AWI-USIABP,unknown,South
2013-02-15T09:00:00Z,1360918800,2013,9,0,46.375,46.375,-70.689,-8.2712,975.9,-5.0,-3.8,yes,yes,yes,300234011691900,Snow_Buoy,AWI-USIABP,unknown,South
2013-02-15T10:00:28Z,1360922429,2013,10,0,46.417,46.417,-70.689,-8.2712,975.9,-5.0,-4.0,yes,yes,yes,300234011691900,Snow_Buoy,AWI-USIABP,unknown,South
2013-02-15T10:59:31Z,1360925971,2013,11,0,46.458,46.458,-70.689,-8.2712,975.7,-4.9,-3.8,yes,yes,yes,300234011691900,Snow_Buoy,AWI-USIABP,unknown,South
2013-02-15T12:21:36Z,1360930896,2013,12,21,46.515,46.515,-70.689,-8.2712,975.3,-4.8,-3.3,yes,yes,yes,300234011691900,Snow_Buoy,AWI-USIABP,unknown,South
2013-02-15T13:00:28Z,1360933229,2013,13,0,46.542,46.542,-70.689,-8.2712,975.0,-4.8,-3.8,yes,yes,yes,300234011691900,Snow_Buoy,AWI-USIABP,unknown,South
2013-02-15T13:59:31Z,1360936771,2013,14,0,46.583,46.583,-70.689,-8.2712,974.8,-4.7,-2.9,yes,yes,yes,300234011691900,Snow_Buoy,AWI-USIABP,unknown,South
2013-02-15T15:00:00Z,1360940400,2013,15,0,46.625,46.625,-70.689,-8.2712,974.7,-4.6,-3.1,yes,yes,yes,300234011691900,Snow_Buoy,AWI-USIABP,unknown,South
2013-02-15T16:00:28Z,1360944029,2013,16,0,46.667,46.667,-70.689,-8.2712,973.7,-4.5,-3.3,yes,yes,yes,300234011691900,Snow_Buoy,AWI-USIABP,unknown,South
2013-02-15T16:59:31Z,1360947571,2013,17,0,46.708,46.708,-70.689,-8.2712,974.6,-4.5,-3.5,yes,yes,yes,300234011691900,Snow_Buoy,AWI-USIABP,unknown,South
2013-02-15T18:00:00Z,1360951200,2013,18,0,46.75,46.75,-70.689,-8.2712,974.6,-4.5,-3.6,yes,yes,yes,300234011691900,Snow_Buoy,AWI-USIABP,unknown,South
2013-02-15T19:00:28Z,1360954829,2013,19,0,46.792,46.792,-70.689,-8.2712,974.3,-4.6,-3.7,yes,yes,yes,300234011691900,Snow_Buoy,AWI-USIABP,unknown,South
2013-02-15T19:59:31Z,1360958371,2013,20,0,46.833,46.833,-70.689,-8.2712,974.0,-4.6,-3.8,yes,yes,yes,300234011691900,Snow_Buoy,AWI-USIABP,unknown,South
2013-02-15T21:00:00Z,1360962000,2013,21,0,46.875,46.875,-70.689,-8.271,973.8,-4.7,-4.1,yes,yes,yes,300234011691900,Snow_Buoy,AWI-USIABP,unknown,South
2013-02-15T22:00:28Z,1360965629,2013,22,0,46.917,46.917,-70.689,-8.271,973.5,-4.8,-5.0,yes,yes,yes,300234011691900,Snow_Buoy,AWI-USIABP,unknown,South
2013-02-15T22:59:31Z,1360969171,2013,23,0,46.958,46.958,-70.689,-8.271,973.4,-4.9,-6.0,yes,yes,yes,300234011691900,Snow_Buoy,AWI-USIABP,unknown,South
2013-02-16T00:00:00Z,1360972800,2013,0,0,47.0,47.0,-70.689,-8.271,973.0,-5.1,-7.6,yes,yes,yes,300234011691900,Snow_Buoy,AWI-USIABP,unknown,South
2013-02-16T01:00:28Z,1360976429,2013,1,0,47.042,47.042,-70.689,-8.271,972.6,-5.3,-7.3,yes,yes,yes,300234011691900,Snow_Buoy,AWI-USIABP,unknown,South
2013-02-16T01:59:31Z,1360979971,2013,2,0,47.083,47.083,-70.689,-8.271,972.4,-5.6,-9.3,yes,yes,yes,300234011691900,Snow_Buoy,AWI-USIABP,unknown,South
2013-02-16T03:00:00Z,1360983600,2013,3,0,47.125,47.125,-70.689,-8.2712,972.0,-5.8,-10.6,yes,yes,yes,300234011691900,Snow_Buoy,AWI-USIABP,unknown,South
2013-02-16T04:19:12Z,1360988352,2013,4,19,47.18,47.18,-70.689,-8.2712,971.6,-6.3,-12.0,yes,yes,yes,300234011691900,Snow_Buoy,AWI-USIABP,unknown,South
2013-02-16T04:59:31Z,1360990771,2013,5,0,47.208,47.208,-70.689,-8.2712,971.4,-6.4,-12.4,yes,yes,yes,300234011691900,Snow_Buoy,AWI-USIABP,unknown,South
2013-02-16T06:00:00Z,1360994400,2013,6,0,47.25,47.25,-70.689,-8.2712,971.2,-6.7,-12.0,yes,yes,yes,300234011691900,Snow_Buoy,AWI-USIABP,unknown,South
2013-02-16T07:00:28Z,1360998029,2013,7,0,47.292,47.292,-70.689,-8.2712,971.2,-6.9,-11.5,yes,yes,yes,300234011691900,Snow_Buoy,AWI-USIABP,unknown,South
2013-02-16T07:59:31Z,1361001571,2013,8,0,47.333,47.333,-70.689,-8.2712,971.2,-7.0,-10.8,yes,yes,yes,300234011691900,Snow_Buoy,AWI-USIABP,unknown,South
2013-02-16T09:00:00Z,1361005200,2013,9,0,47.375,47.375,-70.689,-8.2712,971.2,-7.0,-10.0,yes,yes,yes,300234011691900,Snow_Buoy,AWI-USIABP,unknown,South
2013-02-16T10:00:28Z,1361008829,2013,10,0,47.417,47.417,-70.689,-8.2712,971.1,-6.9,-8.4,yes,yes,yes,300234011691900,Snow_Buoy,AWI-USIABP,unknown,South
2013-02-16T10:59:31Z,1361012371,2013,11,0,47.458,47.458,-70.689,-8.2712,971.0,-6.8,-6.5,yes,yes,yes,300234011691900,Snow_Buoy,AWI-USIABP,unknown,South
2013-02-16T12:00:00Z,1361016000,2013,12,0,47.5,47.5,-70.689,-8.2712,971.3,-6.6,-4.9,yes,yes,yes,300234011691900,Snow_Buoy,AWI-USIABP,unknown,South
2013-02-16T13:00:28Z,1361019629,2013,13,0,47.542,47.542,-70.689,-8.2712,971.6,-6.3,-4.5,yes,yes,yes,300234011691900,Snow_Buoy,AWI-USIABP,unknown,South
2013-02-16T13:59:31Z,1361023171,2013,14,0,47.583,47.583,-70.689,-8.2712,971.4,-6.0,-3.4,yes,yes,yes,300234011691900,Snow_Buoy,AWI-USIABP,unknown,South
2013-02-16T15:00:00Z,1361026800,2013,15,0,47.625,47.625,-70.689,-8.2712,971.5,-5.8,-3.4,yes,yes,yes,300234011691900,Snow_Buoy,AWI-USIABP,unknown,South
2013-02-16T16:00:28Z,1361030429,2013,16,0,47.667,47.667,-70.689,-8.2712,971.8,-5.6,-3.8,yes,yes,yes,300234011691900,Snow_Buoy,AWI-USIABP,unknown,South
2013-02-16T16:59:31Z,1361033971,2013,17,0,47.708,47.708,-70.689,-8.2712,972.1,-5.4,-4.3,yes,yes,yes,300234011691900,Snow_Buoy,AWI-USIABP,unknown,South
2013-02-16T18:00:00Z,1361037600,2013,18,0,47.75,47.75,-70.689,-8.2712,972.4,-5.4,-5.4,yes,yes,yes,300234011691900,Snow_Buoy,AWI-USIABP,unknown,South
2013-02-16T19:00:28Z,1361041229,2013,19,0,47.792,47.792,-70.689,-8.2712,973.1,-5.4,-6.1,yes,yes,yes,300234011691900,Snow_Buoy,AWI-USIABP,unknown,South
2013-02-16T19:59:31Z,1361044771,2013,20,0,47.833,47.833,-70.689,-8.2712,973.6,-5.5,-7.6,yes,yes,yes,300234011691900,Snow_Buoy,AWI-USIABP,unknown,South
2013-02-16T21:00:00Z,1361048400,2013,21,0,47.875,47.875,-70.689,-8.2712,974.3,-5.7,-9.0,yes,yes,yes,300234011691900,Snow_Buoy,AWI-USIABP,unknown,South
2013-02-16T22:00:28Z,1361052029,2013,22,0,47.917,47.917,-70.689,-8.2712,975.1,-6.0,-10.6,yes,yes,yes,300234011691900,Snow_Buoy,AWI-USIABP,unknown,South
2013-02-16T22:59:31Z,1361055571,2013,23,0,47.958,47.958,-70.689,-8.2712,975.7,-6.4,-11.5,yes,yes,yes,300234011691900,Snow_Buoy,AWI-USIABP,unknown,South
2013-02-17T00:00:00Z,1361059200,2013,0,0,48.0,48.0,-70.689,-8.271,976.2,-6.7,-12.8,yes,yes,yes,300234011691900,Snow_Buoy,AWI-USIABP,unknown,South
2013-02-17T01:00:28Z,1361062829,2013,1,0,48.042,48.042,-70.689,-8.271,976.6,-7.1,-13.2,yes,yes,yes,300234011691900,Snow_Buoy,AWI-USIABP,unknown,South
2013-02-17T01:59:31Z,1361066371,2013,2,0,48.083,48.083,-70.689,-8.271,976.6,-7.5,-14.7,yes,yes,yes,300234011691900,Snow_Buoy,AWI-USIABP,unknown,South
2013-02-17T03:00:00Z,1361070000,2013,3,0,48.125,48.125,-70.689,-8.2712,976.9,-7.8,-15.8,yes,yes,yes,300234011691900,Snow_Buoy,AWI-USIABP,unknown,South
2013-02-17T04:14:52Z,1361074493,2013,4,15,48.177,48.177,-70.689,-8.2712,977.9,-8.3,-16.0,yes,yes,yes,300234011691900,Snow_Buoy,AWI-USIABP,unknown,South
2013-02-17T04:59:31Z,1361077171,2013,5,0,48.208,48.208,-70.689,-8.2712,978.2,-8.5,-15.3,yes,yes,yes,300234011691900,Snow_Buoy,AWI-USIABP,unknown,South
2013-02-17T06:00:00Z,1361080800,2013,6,0,48.25,48.25,-70.689,-8.2712,978.8,-8.7,-15.7,yes,yes,yes,300234011691900,Snow_Buoy,AWI-USIABP,unknown,South
2013-02-17T07:23:31Z,1361085811,2013,7,24,48.308,48.308,-70.689,-8.2712,979.4,-8.8,-13.7,yes,yes,yes,300234011691900,Snow_Buoy,AWI-USIABP,unknown,South
2013-02-17T07:59:31Z,1361087971,2013,8,0,48.333,48.333,-70.689,-8.2712,979.3,-8.8,-12.9,yes,yes,yes,300234011691900,Snow_Buoy,AWI-USIABP,unknown,South
2013-02-17T09:00:00Z,1361091600,2013,9,0,48.375,48.375,-70.689,-8.2712,979.3,-8.7,-10.9,yes,yes,yes,300234011691900,Snow_Buoy,AWI-USIABP,unknown,South
2013-02-17T10:16:19Z,1361096179,2013,10,16,48.428,48.428,-70.689,-8.2712,979.4,-8.5,-9.0,yes,yes,yes,300234011691900,Snow_Buoy,AWI-USIABP,unknown,South
2013-02-17T10:59:31Z,1361098771,2013,11,0,48.458,48.458,-70.689,-8.2712,979.5,-8.3,-8.7,yes,yes,yes,300234011691900,Snow_Buoy,AWI-USIABP,unknown,South
2013-02-17T12:00:00Z,1361102400,2013,12,0,48.5,48.5,-70.689,-8.2712,979.5,-8.0,-7.9,yes,yes,yes,300234011691900,Snow_Buoy,AWI-USIABP,unknown,South
2013-02-17T13:00:28Z,1361106029,2013,13,0,48.542,48.542,-70.689,-8.2712,979.5,-7.8,-7.5,yes,yes,yes,300234011691900,Snow_Buoy,AWI-USIABP,unknown,South
2013-02-17T13:59:31Z,1361109571,2013,14,0,48.583,48.583,-70.689,-8.2712,979.5,-7.5,-7.0,yes,yes,yes,300234011691900,Snow_Buoy,AWI-USIABP,unknown,South
2013-02-17T15:00:00Z,1361113200,2013,15,0,48.625,48.625,-70.689,-8.2712,979.9,-7.2,-7.1,yes,yes,yes,300234011691900,Snow_Buoy,AWI-USIABP,unknown,South
2013-02-17T16:00:28Z,1361116829,2013,16,0,48.667,48.667,-70.689,-8.2712,980.1,-7.1,-6.6,yes,yes,yes,300234011691900,Snow_Buoy,AWI-USIABP,unknown,South
2013-02-17T16:59:31Z,1361120371,2013,17,0,48.708,48.708,-70.689,-8.2712,980.4,-6.9,-6.8,yes,yes,yes,300234011691900,Snow_Buoy,AWI-USIABP,unknown,South
2013-02-17T18:00:00Z,1361124000,2013,18,0,48.75,48.75,-70.689,-8.2712,980.4,-6.9,-7.1,yes,yes,yes,300234011691900,Snow_Buoy,AWI-USIABP,unknown,South
2013-02-17T19:00:28Z,1361127629,2013,19,0,48.792,48.792,-70.689,-8.2712,980.3,-6.9,-8.4,yes,yes,yes,300234011691900,Snow_Buoy,AWI-USIABP,unknown,South
2013-02-17T19:59:31Z,1361131171,2013,20,0,48.833,48.833,-70.689,-8.2712,980.7,-7.0,-9.9,yes,yes,yes,300234011691900,Snow_Buoy,AWI-USIABP,unknown,South
2013-02-17T21:24:28Z,1361136269,2013,21,24,48.892,48.892,-70.689,-8.271,981.4,-7.3,-12.6,yes,yes,yes,300234011691900,Snow_Buoy,AWI-USIABP,unknown,South
2013-02-17T22:00:28Z,1361138429,2013,22,0,48.917,48.917,-70.689,-8.271,981.4,-7.5,-14.0,yes,yes,yes,300234011691900,Snow_Buoy,AWI-USIABP,unknown,South
2013-02-17T22:59:31Z,1361141971,2013,23,0,48.958,48.958,-70.689,-8.271,981.7,-7.9,-14.6,yes,yes,yes,300234011691900,Snow_Buoy,AWI-USIABP,unknown,South
2013-02-18T00:00:00Z,1361145600,2013,0,0,49.0,49.0,-70.689,-8.2712,982.0,-8.3,-15.5,yes,yes,yes,300234011691900,Snow_Buoy,AWI-USIABP,unknown,South
2013-02-18T01:00:28Z,1361149229,2013,1,0,49.042,49.042,-70.689,-8.2712,982.1,-8.7,-14.8,yes,yes,yes,300234011691900,Snow_Buoy,AWI-USIABP,unknown,South
2013-02-18T01:59:31Z,1361152771,2013,2,0,49.083,49.083,-70.689,-8.2712,982.2,-9.0,-16.4,yes,yes,yes,300234011691900,Snow_Buoy,AWI-USIABP,unknown,South
2013-02-18T03:24:28Z,1361157869,2013,3,24,49.142,49.142,-70.689,-8.2712,982.3,-9.5,-17.2,yes,yes,yes,300234011691900,Snow_Buoy,AWI-USIABP,unknown,South
2013-02-18T04:00:28Z,1361160029,2013,4,0,49.167,49.167,-70.689,-8.2712,982.5,-9.6,-16.8,yes,yes,yes,300234011691900,Snow_Buoy,AWI-USIABP,unknown,South
2013-02-18T04:59:31Z,1361163571,2013,5,0,49.208,49.208,-70.689,-8.2712,982.8,-9.9,-17.1,yes,yes,yes,300234011691900,Snow_Buoy,AWI-USIABP,unknown,South
2013-02-18T06:00:00Z,1361167200,2013,6,0,49.25,49.25,-70.689,-8.2712,982.9,-10.1,-15.4,yes,yes,yes,300234011691900,Snow_Buoy,AWI-USIABP,unknown,South